(475120) = 2005 UW280

Discovered at Kitt Peak on 2005-10-24 by Spacewatch.

Orbit

Orbit type: Main Belt

Note: WebGL enabled browser required.

epoch2024-03-31.0
epoch JD2460400.5
perihelion date2022-12-06.99602
perihelion JD2459920.49602
argument of perihelion (°)190.55013
ascending node (°)234.36896
inclination (°)10.15079
eccentricity0.2210671
perihelion distance (AU)2.4816192
Tisserand w.r.t. Jupiter3.1
ΔV w.r.t. Earth (km/sec)10.4
semimajor axis (AU)3.1859216
mean anomaly (°)83.19482
mean daily motion (°/day)0.17332110
aphelion distance (AU)3.890
period (years)5.69
P-vector [x]0.42622710
P-vector [y]0.84227667
P-vector [z]0.33000071
Q-vector [x]-0.89320289
Q-vector [y]0.44961266
Q-vector [z]0.00608794
absolute magnitude16.76
phase slope0.15
uncertainty0
referenceE2024-FB1
observations used156
oppositions8
arc length (days)6732
first opposition used2005
last opposition used2024
residual rms (arc-secs)0.70
perturbers coarse indicatorM-v
perturbers precise indicator003Ek
first observation date used2005-10-24.0
last observation date used2024-03-30.0
computer nameMPCLINUX
JD of orbit computation2457688.051447
perihelion JD uncertainty (days)2.2627E-04
argument of perihelion uncertainty (°)6.0526E-05
ascending node uncertainty (°)2.3753E-05
inclination uncertainty (°)6.6952E-06
eccentricity uncertainty 7.0192E-08
perihelion distance uncertainty (AU)2.2929E-07
Minimum Orbit Intersection Distances (in AU)
for orbit epoch: 2460400.5, reference: E2024-FB1
Mercury2.17282
Venus1.76033
Earth1.49607
Mars0.96615
Jupiter1.45647
Saturn6.10226
Uranus14.9562
Neptune26.6711

Observations

155 total observations over interval: 2005 10 24.38543 – 2023 01 11.554090
These data are available for download (format description).

